Flag for Mexico Weather past 2 weeks in Puerto Vallarta, Jalisco, Mexico

Now
82 °F

Partly sunny.


Feels Like: 88 °F
Forecast: 71 / 87 °F
Wind: 8 mph from Southwest

Location: Puerto Vallarta / Lic

Current Time: May 25, 2015 at 9:11:11 PM

Latest Report: May 25, 2015 at 7:59 PM


Visibility: 15 mi

Pressure: 29.81 "Hg

Humidity: 74%

Dew point: 73 °F

Location of Puerto VallartaLocation

Historic Weather in Puerto Vallarta — Graph

°F

Puerto Vallarta temperature yesterday

Maximum temperature yesterday: 88 °F (at 12:47 PM)
Minimum temperature yesterday: 77 °F (at 3:47 AM)
Average temperature yesterday: 82 °F

Past Weeks' High & Low Weather Summary

 TemperatureHumidityPressure
High91 °F (May 23, 10:42 AM)94% (May 11, 2:46 AM)29.97 "Hg (May 11, 2:46 AM)
Low70 °F (May 11, 6:49 AM)40% (May 20, 10:45 AM)29.78 "Hg (May 11, 6:49 PM)
Average80 °F76%29.88 "Hg
* Reported May 10 7:47 PM — May 25 7:59 PM, Puerto Vallarta, Weather by CustomWeather, © 2015

Note: Actual official high and low records may vary slightly from our data, if they occured in-between our weather recording intervals... More about our weather records

Advertising

Puerto Vallarta weather history for previous 24 hours

 ConditionsComfort  
Time TempWeatherWind HumidityBarometerVisibility
7:59 PM
Mon, May 25
82 °FPartly sunny.8 mph74%29.81 "Hg15 mi
5:48 PM86 °FPartly sunny.13 mph66%29.79 "Hg15 mi
4:48 PM86 °FPartly sunny.14 mph66%29.81 "Hg12 mi
3:48 PM88 °FPartly sunny.13 mph62%29.82 "Hg15 mi
1:45 PM86 °FBroken clouds.14 mph70%29.87 "Hg15 mi
12:46 PM86 °FPartly sunny.7 mph70%29.88 "Hg15 mi
11:52 AM84 °FPartly sunny.8 mph70%29.90 "Hg15 mi
10:49 AM84 °FPartly sunny.No wind66%29.91 "Hg15 mi
8:45 AM77 °FScattered clouds.5 mph83%29.90 "Hg15 mi
7:50 AM73 °FPassing clouds.5 mph89%29.89 "Hg15 mi
6:47 AM73 °FClear.2 mph94%29.88 "Hg12 mi
4:44 AM75 °FClear.2 mph89%29.88 "Hg12 mi
3:46 AM75 °FClear.No wind89%29.87 "Hg12 mi
12:52 AM77 °FClear.No wind89%29.89 "Hg12 mi
11:48 PM
Sun, May 24
79 °FClear.2 mph84%29.89 "Hg12 mi
9:46 PM81 °FClear.5 mph79%29.86 "Hg12 mi
Weather by CustomWeather, © 2015

See weather overviewHow to use our weather pages